Terminal Aerodrome Forecast
Issued by NWS

Home | Current Version | Previous Version | Text Only | Print | Product List | Glossary On
Versions: 1 2 3 4 5 6 7 8 9 10 11 12 13 14
000
FTUS46 KMTR 281100
TAFSNS
TAF
KSNS 281137Z 2812/2912 VRB03KT P6SM OVC009
     FM281730 VRB03KT P6SM SCT009 SCT200
     FM281900 29010KT P6SM SCT200
     FM290300 29006KT P6SM BKN008
     FM290400 29004KT P6SM OVC007=

USA.gov is the U.S. government's official web portal to all federal, state and local government web resources and services.